Location: Rounton
(54.4000°N, 1.3500°W)
Time: 07:17:08
(UTC+00:00)

Vanguard 1 Rocket - Pass Details

Date: 07 December 2021
Orbit: 651 x 4224 km, 34.3° (Epoch: 19 January)

Event Time Altitude Azimuth Distance (km) Brightness Sun altitude
Rises 00:14:10 0° 181° (S) 4,119 - -58.0°
Reaches altitude 10° 00:19:28 10° 150° (SSE) 3,835 - -57.9°
Maximum altitude 00:22:27 12° 132° (SE) 4,091 - -57.8°
Drops below altitude 10° 00:25:57 10° 116° (ESE) 4,662 - -57.7°
Exits shadow 00:28:50 - 105° (ESE) 5,268 11.2 -57.6°
Sets 00:35:00 0° 90° (E) 6,717 11.9 -57.4°
